Brady, TX

4:12 PM CST on February 21, 2018 (GMT -0600)
Curtis

Weather History for KBBD - May, 2014

Change the Weather History Date:

Monday, May 19, 2014

  Actual Average (KJCT) Record (KJCT)
Temperature  
Mean Temperature 76 °F -  
Max Temperature 87 °F 86 °F 104 °F (2003)
Min Temperature 64 °F 61 °F 44 °F (2002)
Cooling Degree Days 10    
Growing Degree Days 26 (Base 50)    
Moisture  
Dew Point 57 °F    
Average Humidity 56    
Maximum Humidity 77    
Minimum Humidity 33    
Precipitation  
Precipitation 0.00 in - - ()
Sea Level Pressure  
Sea Level Pressure 29.96 in    
Wind  
Wind Speed 15 mph (SSE)    
Max Wind Speed 21 mph    
Max Gust Speed 26 mph    
Visibility 10 miles    
Events      
Averages and records for this station are not official NWS values.
T = Trace of Precipitation, MM = Missing Value Source: NWS Daily Summary

Daily Weather History Graph

Daily Weather History Graph

Search for Another Location

Airport or City:

Trip Planner

Search our weather history database for the weather conditions in past years. The results will help you decide how hot, cold, wet, or windy it might be!

Date:

Astronomy

May. 19, 2014 Rise Set
Actual Time 6:39 AM CDT 8:28 PM CDT
Civil Twilight 6:12 AM CDT 8:55 PM CDT
Nautical Twilight 5:40 AM CDT 9:28 PM CDT
Astronomical Twilight 5:05 AM CDT 10:02 PM CDT
Moon 12:22 AM CDT (5/19) 11:32 AM CDT (5/19)
Length of Visible Light 14h 43m
Length of Day
13h 49m
Waning Gibbous, 71% of the Moon is Illuminated
May 19
Waning Gibbous
May 21
Last Quarter
May 28
New
Jun 5
First Quarter
Jun 12
Full

Hourly Weather History & Observations

Time (CDT) Temp. Heat Index Dew Point Humidity Pressure Visibility Wind Dir Wind Speed Gust Speed Precip Events Conditions
12:55 AM 69.8 °F - 57.2 °F 64% 29.98 in 10.0 mi SSE 16.1 mph - N/A   Clear
1:15 AM 68.0 °F - 57.2 °F 68% 29.98 in 10.0 mi SSE 13.8 mph - N/A   Clear
1:35 AM 68.0 °F - 57.2 °F 68% 29.97 in 10.0 mi SSE 11.5 mph - N/A   Clear
1:55 AM 66.2 °F - 57.2 °F 73% 29.97 in 10.0 mi SSE 13.8 mph - N/A   Clear
2:15 AM 66.2 °F - 57.2 °F 73% 29.96 in 10.0 mi SSE 11.5 mph - N/A   Clear
2:35 AM 66.2 °F - 57.2 °F 73% 29.96 in 10.0 mi SSE 11.5 mph - N/A   Clear
2:55 AM 66.2 °F - 57.2 °F 73% 29.97 in 10.0 mi SSE 11.5 mph - N/A   Clear
3:15 AM 64.4 °F - 57.2 °F 77% 29.96 in 10.0 mi SSE 12.7 mph - N/A   Clear
4:15 AM 64.4 °F - 57.2 °F 77% 29.95 in 10.0 mi SSE 11.5 mph - N/A   Overcast
4:35 AM 64.4 °F - 57.2 °F 77% 29.95 in 10.0 mi SSE 12.7 mph - N/A   Mostly Cloudy
4:55 AM 64.4 °F - 57.2 °F 77% 29.95 in 10.0 mi SSE 16.1 mph - N/A   Mostly Cloudy
5:15 AM 64.4 °F - 57.2 °F 77% 29.96 in 10.0 mi SSE 15.0 mph - N/A   Mostly Cloudy
5:35 AM 64.4 °F - 57.2 °F 77% 29.96 in 10.0 mi South 13.8 mph - N/A   Mostly Cloudy
5:55 AM 64.4 °F - 57.2 °F 77% 29.96 in 10.0 mi SSE 15.0 mph - N/A   Overcast
6:15 AM 64.4 °F - 57.2 °F 77% 29.97 in 10.0 mi SSE 13.8 mph - N/A   Mostly Cloudy
6:35 AM 64.4 °F - 57.2 °F 77% 29.97 in 10.0 mi South 11.5 mph - N/A   Partly Cloudy
6:55 AM 64.4 °F - 57.2 °F 77% 29.98 in 10.0 mi South 13.8 mph - N/A   Scattered Clouds
7:15 AM 64.4 °F - 57.2 °F 77% 29.98 in 10.0 mi SSE 12.7 mph - N/A   Scattered Clouds
7:35 AM 64.4 °F - 57.2 °F 77% 29.99 in 10.0 mi SSE 13.8 mph - N/A   Mostly Cloudy
9:55 AM 71.6 °F - 57.2 °F 60% 30.03 in 10.0 mi South 16.1 mph - N/A   Partly Cloudy
10:55 AM 75.2 °F - 57.2 °F 53% 30.01 in 10.0 mi SSE 16.1 mph - N/A   Clear
11:15 AM 75.2 °F - 57.2 °F 53% 30.01 in 10.0 mi SSE 17.3 mph - N/A   Clear
11:35 AM 75.2 °F - 59.0 °F 57% 30.01 in 10.0 mi South 18.4 mph - N/A   Clear
12:15 PM 78.8 °F - 60.8 °F 54% 30.00 in - South 16.1 mph 26.5 mph N/A   Unknown
12:55 PM 80.6 °F 81.1 °F 59.0 °F 48% 29.99 in - South 19.6 mph - N/A   Unknown
1:35 PM 82.4 °F 82.5 °F 59.0 °F 45% 29.98 in - South 19.6 mph - N/A   Unknown
2:15 PM 84.2 °F 83.8 °F 59.0 °F 42% 29.97 in 10.0 mi SSE 17.3 mph - N/A   Clear
3:55 PM 87.8 °F 86.5 °F 57.2 °F 35% 29.94 in - South 17.3 mph - N/A   Unknown
4:35 PM 87.8 °F 86.5 °F 57.2 °F 35% 29.94 in - SSE 17.3 mph - N/A   Unknown
4:55 PM 87.8 °F 86.5 °F 57.2 °F 35% 29.93 in - SSE 17.3 mph - N/A   Unknown
5:15 PM 87.8 °F 86.1 °F 55.4 °F 33% 29.93 in - SE 17.3 mph - N/A   Unknown
5:55 PM 86.0 °F 84.5 °F 55.4 °F 35% 29.92 in - SSE 19.6 mph - N/A   Unknown
6:15 PM 86.0 °F 84.5 °F 55.4 °F 35% 29.92 in - SE 17.3 mph - N/A   Unknown
6:35 PM 86.0 °F 84.5 °F 55.4 °F 35% 29.92 in - SSE 17.3 mph - N/A   Unknown
6:55 PM 86.0 °F 84.5 °F 55.4 °F 35% 29.92 in - SE 20.7 mph - N/A   Unknown
7:15 PM 84.2 °F 83.0 °F 55.4 °F 37% 29.91 in - SSE 17.3 mph - N/A   Unknown
7:35 PM 84.2 °F 83.0 °F 55.4 °F 37% 29.92 in - SSE 15.0 mph - N/A   Unknown
8:15 PM 82.4 °F 81.7 °F 55.4 °F 39% 29.91 in - SSE 19.6 mph - N/A   Unknown
8:55 PM 80.6 °F 80.5 °F 55.4 °F 42% 29.93 in - SSE 13.8 mph - N/A   Unknown
9:15 PM 78.8 °F - 55.4 °F 44% 29.94 in - SSE 15.0 mph - N/A   Unknown
9:35 PM 78.8 °F - 55.4 °F 44% 29.94 in - SSE 16.1 mph - N/A   Unknown
9:55 PM 77.0 °F - 55.4 °F 47% 29.95 in - SSE 13.8 mph - N/A   Unknown
10:15 PM 77.0 °F - 55.4 °F 47% 29.96 in - SSE 13.8 mph - N/A   Unknown
10:35 PM 75.2 °F - 55.4 °F 50% 29.96 in - SSE 13.8 mph - N/A   Unknown
10:55 PM 75.2 °F - 57.2 °F 53% 29.97 in - SSE 15.0 mph - N/A   Unknown
11:55 PM 73.4 °F - 55.4 °F 53% 29.97 in - SSE 17.3 mph - N/A   Unknown